サイディング・スプリング彗星

162P/Siding Spring (2020)

English version
Home page
Updated on April 24, 2022

---------------------------------------------------------------------

・ プロフィール

・ 写真集

・ 軌道要素

Epoch 2022 Jan. 21.0 TT = JDT 2459600.5
T 2020 Dec. 7.87038 TT                                  Rudenko
q   1.2891364            (2000.0)            P               Q
n   0.18130786     Peri.  357.16056     +0.87958151     -0.41218793
a   3.0916593      Node    30.89799     +0.44509978     +0.53664456
e   0.5830277      Incl.   27.55696     +0.16799570     +0.73628373
P   5.44
From 3009 observations 1990 Mar. 23-2022 Feb. 2, mean residual 0".5.

・ 星図

・ 光度変化

        H = 13.7  G = 0.15

---------------------------------------------------------------------

軌道要素はM.P.E.C. 2022-C56に掲載されたものです。
星図はステラナビゲータ Ver.10 (アストロアーツ) で作成したものです。
光度グラフはComet for Windowsで作成したものです。

---------------------------------------------------------------------

Copyright(C) Seiichi Yoshida (comet@aerith.net). All rights reserved.